Weather in Kornevoye

Russia / Ryazan Oblast     53°46′30″N   39°29′35″E
temp.,
°C
wind,
m/s
gust,
m/s
humid.,
%
clouds,
%
prec.,
mm/h
press.,
hPa
HPBL,
m
2 march, tue
tue200:00−2wsw7139285 0.0 1018604
03:000w7149293 0.0 1016708
06:00+1w71493100 0.0 1012771
09:00+1w71496100 0.0 1011569
12:00+1wnw612100100 0.1 1009593
15:00+1wnw51197100 0.2 1009648
18:000nw5118998 0.2 1009500
21:00−2nw5129199 0.3 1010349
3 march, wed
wed300:00−3nw6139196 0.1 1011445
03:00−3nw6139197 0.1 1012599
06:00−4nnw7129198 0.1 1013704
09:00−6nw7148892 0.1 1016711
12:00−4nw7128321 0.0 1016826
15:00−2wnw6118411 0.0 1016813
18:00−1wnw6129059 0.1 1015684
21:00−2wnw5119275 0.1 1016592
4 march, thu
thu400:00−2w51094100 0.1 1015541
03:00−2w5119096 0.1 1014574
06:00−3wsw71390100 0.0 1011434
09:00−2sw8158999 0.0 1009427
12:00+1wsw101879100 0.0 1005721
15:00+1wsw91780100 0.0 1004786
18:00+1wsw8178396 0.0 1002700
21:00+1wsw6149388 0.1 1001570
5 march, fri
fri500:00+1wnw4898100 0.1 1002348
03:00−2n4793100 0.4 1003287
06:00−4n2497100 0.2 1004180
09:00−3nnw1293100 0.4 1006157
12:00−2ne1184100 0.1 1007378
15:00−2ene2391100 0.2 1007343
18:00−3ne3697100 0.9 1006305
21:00−4nne4796100 2.4 1006358
6 march, sat
sat600:00−5n5895100 0.9 1006395
03:00−6nnw4795100 1.2 1008266
06:00−9nw3696100 0.1 1010112
09:00−7wnw489496 0.2 1011383
12:00−6wnw678994 0.1 1012619
15:00−5nw578497 0.3 1012917
18:00−8w368895 0.1 1013119
21:00−11w368968 0.1 101488